Weather History for Silver Bay, MN

Change the Weather History Date:

Saturday, February 16, 2013

  Actual Average Record
Temperature  
Mean Temperature 0 °F -  
Max Temperature 24 °F 26 °F 55 °F (2011)
Min Temperature -25 °F 4 °F -25 °F (2013)
Degree Days  
Heating Degree Days 66    
Moisture  
Dew Point -17 °F    
Average Humidity 57    
Maximum Humidity 77    
Minimum Humidity 22    
Precipitation  
Precipitation 0.00 in - - ()
Sea Level Pressure  
Sea Level Pressure 30.11 in    
Wind  
Wind Speed 1 mph (South)    
Max Wind Speed 8 mph    
Max Gust Speed -    
Visibility 10 miles    
Events      
Averages and records for this station are not official NWS values.
T = Trace of Precipitation, MM = Missing Value Source: NWS Daily Summary

Daily Weather History Graph

Daily Weather History Graph

Search for Another Location

Airport:

Trip Planner

Search our weather history database for the weather conditions in past years. The results will help you decide how hot, cold, wet, or windy it might be!

Date:

Astronomy

Feb. 16, 2013 Rise Set
Actual Time 7:08 AM CST 5:31 PM CST
Civil Twilight 6:37 AM CST 6:03 PM CST
Nautical Twilight 6:01 AM CST 6:38 PM CST
Astronomical Twilight 5:26 AM CST 7:14 PM CST
Moon 9:52 AM CST (2/16) No Moon Set
Length of Visible Light 11h 25m
Length of Day
10h 23m
Waxing Crescent, 39% of the Moon is Illuminated
Feb 16
Waxing Crescent
Feb 17
First Quarter
Feb 25
Full
Mar 4
Last Quarter
Mar 11
New

Hourly Weather History & Observations

Time (CST) Temp. Windchill Dew Point Humidity Pressure Visibility Wind Dir Wind Speed Gust Speed Precip Events Conditions
12:14 AM -14.8 °F - -22.0 °F 70% 30.14 in 10.0 mi Calm Calm - N/A   Clear
12:33 AM -13.0 °F - -20.2 °F 70% 30.14 in 10.0 mi Calm Calm - N/A   Clear
12:53 AM -14.8 °F - -23.8 °F 64% 30.13 in 10.0 mi Calm Calm - N/A   Clear
1:13 AM -16.6 °F - -25.6 °F 64% 30.13 in 10.0 mi Calm Calm - N/A   Clear
1:33 AM -16.6 °F - -23.8 °F 70% 30.13 in 7.0 mi Calm Calm - N/A   Clear
1:53 AM -18.4 °F - -25.6 °F 70% 30.13 in 10.0 mi Calm Calm - N/A   Clear
2:13 AM -18.4 °F - -25.6 °F 70% 30.12 in 10.0 mi Calm Calm - N/A   Clear
2:33 AM -20.2 °F - -29.2 °F 63% 30.12 in 10.0 mi Calm Calm - N/A   Clear
2:53 AM -20.2 °F - -27.4 °F 69% 30.12 in 10.0 mi Calm Calm - N/A   Clear
3:13 AM -20.2 °F - -29.2 °F 63% 30.12 in 10.0 mi Calm Calm - N/A   Clear
3:33 AM -22.0 °F - -29.2 °F 69% 30.11 in 10.0 mi Calm Calm - N/A   Clear
3:53 AM -23.8 °F - -32.8 °F 63% 30.11 in 10.0 mi Calm Calm - N/A   Clear
4:13 AM -23.8 °F - -32.8 °F 63% 30.11 in 10.0 mi Calm Calm - N/A   Clear
4:53 AM -23.8 °F - -32.8 °F 63% 30.11 in 10.0 mi Calm Calm - N/A   Clear
5:13 AM -25.6 °F - -34.6 °F 63% 30.12 in 10.0 mi Calm Calm - N/A   Clear
5:33 AM -25.6 °F - -32.8 °F 69% 30.12 in 10.0 mi Calm Calm - N/A   Clear
5:53 AM -25.6 °F - -32.8 °F 69% 30.13 in 10.0 mi Calm Calm - N/A   Clear
6:13 AM -25.6 °F - -34.6 °F 63% 30.13 in 10.0 mi Calm Calm - N/A   Clear
6:33 AM -25.6 °F - -34.6 °F 63% 30.13 in 10.0 mi Calm Calm - N/A   Clear
6:53 AM -25.6 °F - -34.6 °F 63% 30.13 in 10.0 mi Calm Calm - N/A   Clear
7:13 AM -25.6 °F - -34.6 °F 63% 30.13 in 10.0 mi Calm Calm - N/A   Clear
7:33 AM -23.8 °F - -32.8 °F 63% 30.13 in 10.0 mi Calm Calm - N/A   Clear
7:53 AM -18.4 °F - -27.4 °F 63% 30.13 in 10.0 mi Calm Calm - N/A   Clear
8:13 AM -13.0 °F - -20.2 °F 70% 30.13 in 10.0 mi Calm Calm - N/A   Clear
8:33 AM -7.6 °F - -14.8 °F 71% 30.13 in 10.0 mi Calm Calm - N/A   Clear
8:53 AM -0.4 °F - -9.4 °F 66% 30.13 in 10.0 mi Calm Calm - N/A   Clear
9:13 AM 3.2 °F - -7.6 °F 61% 30.13 in 10.0 mi Calm Calm - N/A   Clear
9:33 AM 6.8 °F - -5.8 °F 56% 30.13 in 10.0 mi Calm Calm - N/A   Clear
9:53 AM 12.2 °F - -2.2 °F 53% 30.13 in 10.0 mi Calm Calm - N/A   Clear
10:13 AM 12.2 °F - -5.8 °F 45% 30.13 in 10.0 mi Calm Calm - N/A   Clear
10:33 AM 14.0 °F - -7.6 °F 38% 30.13 in 10.0 mi Calm Calm - N/A   Clear
10:53 AM 15.8 °F - -7.6 °F 35% 30.13 in 10.0 mi Calm Calm - N/A   Clear
11:13 AM 17.6 °F 9.3 °F -7.6 °F 32% 30.13 in 10.0 mi NE 5.8 mph - N/A   Clear
11:33 AM 21.2 °F - -7.6 °F 28% 30.12 in 10.0 mi Calm Calm - N/A   Clear
11:53 AM 17.6 °F - -9.4 °F 30% 30.11 in 10.0 mi Calm Calm - N/A   Unknown
12:13 PM 19.4 °F - -9.4 °F 28% 30.11 in 10.0 mi Calm Calm - N/A   Clear
12:33 PM 21.2 °F - -9.4 °F 26% 30.10 in 10.0 mi Calm Calm - N/A   Clear
12:53 PM 24.8 °F - -9.4 °F 22% 30.10 in 10.0 mi Calm Calm - N/A   Clear
1:13 PM 24.8 °F - -9.4 °F 22% 30.10 in 10.0 mi Calm Calm - N/A   Clear
1:33 PM 24.8 °F 19.1 °F -9.4 °F 22% 30.10 in 10.0 mi South 4.6 mph - N/A   Clear
1:54 PM 17.6 °F - -9.4 °F 30% 30.10 in 10.0 mi Calm Calm - N/A   Clear
2:13 PM 15.8 °F 7.2 °F -5.8 °F 38% 30.10 in 10.0 mi South 5.8 mph - N/A   Clear
2:33 PM 15.8 °F 5.1 °F -7.6 °F 35% 30.10 in 10.0 mi South 8.1 mph - N/A   Clear
2:53 PM 15.8 °F 6.1 °F -5.8 °F 38% 30.10 in 10.0 mi South 6.9 mph - N/A   Clear
3:13 PM 14.0 °F 5.1 °F -5.8 °F 41% 30.10 in 10.0 mi SSW 5.8 mph - N/A   Clear
3:33 PM 14.0 °F 3.9 °F -5.8 °F 41% 30.10 in 10.0 mi SSE 6.9 mph - N/A   Clear
3:53 PM 14.0 °F 5.1 °F -4.0 °F 45% 30.10 in 10.0 mi SSE 5.8 mph - N/A   Clear
4:13 PM 12.2 °F 2.9 °F -4.0 °F 48% 30.09 in 10.0 mi South 5.8 mph - N/A   Clear
4:33 PM 12.2 °F 2.9 °F -4.0 °F 48% 30.10 in 10.0 mi South 5.8 mph - N/A   Clear
4:53 PM 10.4 °F 2.2 °F -5.8 °F 48% 30.10 in 10.0 mi South 4.6 mph - N/A   Clear
5:13 PM 8.6 °F 0.1 °F -4.0 °F 57% 30.09 in 10.0 mi South 4.6 mph - N/A   Clear
5:33 PM 6.8 °F - -5.8 °F 56% 30.10 in 10.0 mi Calm Calm - N/A   Clear
5:53 PM 3.2 °F - -7.6 °F 61% 30.11 in 10.0 mi Calm Calm - N/A   Clear
6:13 PM 1.4 °F - -7.6 °F 66% 30.10 in 10.0 mi Calm Calm - N/A   Clear
6:33 PM -0.4 °F - -9.4 °F 66% 30.11 in 10.0 mi Calm Calm - N/A   Clear
6:53 PM -2.2 °F - -9.4 °F 71% 30.11 in 10.0 mi Calm Calm - N/A   Clear
7:13 PM -4.0 °F - -11.2 °F 71% 30.11 in 10.0 mi Calm Calm - N/A   Clear
7:33 PM -5.8 °F - -14.8 °F 65% 30.10 in 10.0 mi Calm Calm - N/A   Clear
7:53 PM -7.6 °F - -14.8 °F 71% 30.10 in 10.0 mi Calm Calm - N/A   Clear
8:13 PM -7.6 °F - -14.8 °F 71% 30.10 in 10.0 mi Calm Calm - N/A   Clear
8:33 PM -9.4 °F - -16.6 °F 71% 30.10 in 10.0 mi Calm Calm - N/A   Clear
8:53 PM -11.2 °F - -18.4 °F 70% 30.10 in 10.0 mi Calm Calm - N/A   Clear
9:13 PM -11.2 °F - -18.4 °F 70% 30.10 in 10.0 mi Calm Calm - N/A   Clear
9:33 PM -11.2 °F - -20.2 °F 64% 30.10 in 10.0 mi Calm Calm - N/A   Clear
9:53 PM -13.0 °F - -20.2 °F 70% 30.09 in 10.0 mi Calm Calm - N/A   Clear
10:13 PM -14.8 °F - -20.2 °F 77% 30.09 in 10.0 mi Calm Calm - N/A   Clear
10:33 PM -14.8 °F - -22.0 °F 70% 30.08 in 10.0 mi Calm Calm - N/A   Clear
10:53 PM -14.8 °F - -23.8 °F 64% 30.08 in 10.0 mi Calm Calm - N/A   Clear
11:13 PM -16.6 °F - -23.8 °F 70% 30.08 in 10.0 mi Calm Calm - N/A   Clear
11:33 PM -16.6 °F - -23.8 °F 70% 30.07 in 10.0 mi Calm Calm - N/A   Clear
11:53 PM -16.6 °F - -23.8 °F 70% 30.07 in 10.0 mi Calm Calm - N/A   Clear